N4DWK Weather Reports


Display with metric or nautical units.
time (UTC)temp
F
wind
direction
speed
MPH
gust
MPH
rain 1hr
in
rain 24hr
in
rain mn
in
humidity
%
barometer
mb
20260905055008 72 221 0.0 2.0 0.00 0.03 0.00 95 1012.1
20260905054507 72 221 0.0 0.0 0.00 0.03 0.00 95 1012.1
20260905054008 72 221 0.0 0.0 0.00 0.03 0.00 95 1012.1
20260905053507 72 221 0.0 0.0 0.00 0.03 0.00 95 1012.2
20260905053007 72 221 0.0 0.0 0.00 0.03 0.00 95 1012.3
20260905052507 72 221 0.0 0.0 0.00 0.03 0.00 95 1012.4
20260905052007 72 221 0.0 0.0 0.00 0.03 0.00 95 1012.6
20260905051507 72 221 0.0 0.0 0.00 0.03 0.00 95 1012.6
20260905051007 72 221 0.0 1.0 0.00 0.03 0.00 95 1012.8
20260905050507 72 221 0.0 1.0 0.00 0.03 0.00 95 1012.9
20260905050007 72 221 0.0 0.0 0.00 0.03 0.00 95 1012.9
20260905045507 73 221 0.0 0.0 0.00 0.03 0.00 95 1013.0
20260905045007 73 221 0.0 0.0 0.00 0.03 0.00 95 1013.0
20260905044507 73 221 0.0 0.0 0.00 0.03 0.00 95 1013.1
20260905044007 73 221 0.0 1.0 0.00 0.03 0.00 95 1013.1
20260905043507 73 221 0.0 3.0 0.00 0.03 0.00 95 1013.2
20260905043007 73 221 1.0 3.0 0.00 0.03 0.00 95 1013.3
20260905042507 73 221 1.0 3.0 0.00 0.03 0.00 95 1013.2
20260905042008 73 221 0.0 1.0 0.00 0.03 0.00 95 1013.2
20260905041509 73 221 0.0 1.0 0.00 0.03 0.00 95 1013.3
20260905041007 73 221 0.0 3.0 0.00 0.03 0.00 95 1013.3
20260905040507 73 221 0.0 3.0 0.00 0.03 0.00 95 1013.3
20260905040007 73 216 0.0 0.0 0.00 0.03 0.00 95 1013.3
20260905035507 73 216 0.0 2.0 0.00 0.03 0.03 95 1013.3
20260905035007 73 216 1.0 2.0 0.00 0.03 0.03 95 1013.4
20260905034507 73 216 0.0 0.0 0.00 0.03 0.03 95 1013.4
20260905034007 73 216 0.0 0.0 0.00 0.03 0.03 95 1013.4
20260905033508 73 216 0.0 0.0 0.00 0.03 0.03 95 1013.4
20260905033007 74 216 0.0 0.0 0.00 0.03 0.03 95 1013.4
20260905032507 74 216 0.0 0.0 0.00 0.03 0.03 95 1013.4
20260905032007 74 216 0.0 0.0 0.00 0.03 0.03 95 1013.5
20260905031507 74 216 0.0 0.0 0.00 0.03 0.03 95 1013.4
20260905031007 74 216 0.0 0.0 0.00 0.03 0.03 95 1013.4
20260905030507 74 216 0.0 0.0 0.00 0.03 0.03 95 1013.3
20260905030007 74 216 0.0 0.0 0.00 0.03 0.03 95 1013.2
20260905025507 74 216 0.0 0.0 0.00 0.03 0.03 95 1013.2
20260905025008 74 216 0.0 0.0 0.00 0.03 0.03 95 1013.2
20260905024507 74 216 0.0 0.0 0.00 0.03 0.03 95 1013.3
20260905024007 74 216 0.0 0.0 0.00 0.03 0.03 95 1013.3
20260905023508 74 216 0.0 3.0 0.00 0.03 0.03 95 1013.2
20260905023007 74 216 1.0 3.0 0.00 0.03 0.03 95 1013.3
20260905022506 74 260 0.0 0.0 0.00 0.03 0.03 95 1013.3
20260905022007 74 260 0.0 0.0 0.00 0.03 0.03 95 1013.5
20260905021508 74 260 0.0 0.0 0.00 0.03 0.03 95 1013.4
20260905021007 74 260 0.0 0.0 0.00 0.03 0.03 95 1013.4
20260905020507 74 260 0.0 0.0 0.00 0.03 0.03 95 1013.4
20260905020007 74 260 0.0 0.0 0.00 0.03 0.03 95 1013.5
20260905015506 74 260 0.0 0.0 0.00 0.03 0.03 95 1013.5
20260905015006 74 260 0.0 1.0 0.00 0.03 0.03 95 1013.3
20260905014507 74 260 0.0 1.0 0.00 0.03 0.03 95 1013.3
20260905014006 74 260 0.0 0.0 0.00 0.03 0.03 95 1013.3
20260905013507 74 260 0.0 2.0 0.00 0.03 0.03 95 1013.3
20260905013007 74 260 1.0 2.0 0.00 0.03 0.03 95 1013.2
20260905012507 74 260 2.0 2.0 0.00 0.03 0.03 95 1013.1
20260905012007 74 317 0.0 0.0 0.00 0.03 0.03 95 1013.0
20260905011506 74 317 0.0 0.0 0.00 0.03 0.03 95 1012.7
20260905011006 74 317 0.0 0.0 0.00 0.03 0.03 95 1012.7
20260905010507 74 317 0.0 0.0 0.00 0.03 0.03 95 1012.5
20260905010006 74 317 0.0 0.0 0.00 0.03 0.03 95 1012.4
20260905005507 74 317 0.0 0.0 0.00 0.03 0.03 94 1012.3
20260905005007 74 317 0.0 0.0 0.00 0.03 0.03 95 1012.3
20260905004507 75 317 0.0 0.0 0.00 0.03 0.03 95 1012.3
20260905004007 74 317 0.0 0.0 0.00 0.03 0.03 95 1011.9
20260905003507 75 318 0.0 0.0 0.00 0.03 0.03 95 1012.1
20260905003007 75 318 0.0 0.0 0.00 0.03 0.03 95 1012.5
20260905002508 74 318 0.0 0.0 0.00 0.03 0.03 94 1012.4
20260905002007 75 318 0.0 0.0 0.00 0.03 0.03 94 1012.2
20260905001508 75 318 0.0 0.0 0.01 0.03 0.03 94 1011.7
20260905001007 75 315 0.0 0.0 0.01 0.03 0.03 94 1011.5
20260905000507 75 315 0.0 0.0 0.01 0.03 0.03 94 1011.6
20260905000006 75 315 0.0 0.0 0.01 0.03 0.03 94 1011.4
20260904235507 75 191 0.0 1.0 0.02 0.03 0.03 94 1011.6
20260904235007 75 191 0.0 3.0 0.02 0.03 0.03 93 1011.5
20260904234506 75 191 2.0 3.0 0.02 0.03 0.03 93 1011.3
20260904234008 75 163 2.0 3.0 0.02 0.03 0.03 93 1011.2
20260904233507 75 213 2.0 3.0 0.02 0.03 0.03 93 1012.0
20260904233006 75 213 1.0 3.0 0.02 0.03 0.03 93 1012.5
20260904232506 75 213 0.0 6.0 0.02 0.03 0.03 93 1013.0
20260904232007 76 217 3.0 7.0 0.02 0.03 0.03 93 1012.9
20260904231507 76 219 4.0 7.0 0.01 0.02 0.02 93 1013.6
20260904231007 76 205 2.0 3.0 0.01 0.02 0.02 93 1014.0
20260904230506 76 205 2.0 3.0 0.02 0.02 0.02 92 1013.5
20260904230007 76 203 2.0 3.0 0.02 0.02 0.02 92 1013.3
20260904225507 76 140 1.0 3.0 0.01 0.01 0.01 90 1013.2
20260904225006 77 20 0.0 3.0 0.01 0.01 0.01 90 1013.0
20260904224507 77 5 2.0 3.0 0.01 0.01 0.01 91 1013.2
20260904224007 77 9 0.0 8.0 0.01 0.01 0.01 90 1013.3
20260904223507 78 3 2.0 8.0 0.01 0.01 0.01 90 1013.7
20260904223007 78 5 1.0 3.0 0.01 0.01 0.01 90 1013.7
20260904222506 78 153 0.0 2.0 0.01 0.01 0.01 89 1013.3
20260904222007 78 156 0.0 3.0 0.01 0.01 0.01 89 1013.2
20260904221507 78 157 0.0 3.0 0.01 0.01 0.01 87 1013.8
20260904221007 79 157 2.0 5.0 0.01 0.01 0.01 86 1013.9
20260904220507 79 157 2.0 13.0 0.00 0.00 0.00 84 1013.8
20260904220006 80 337 2.0 13.0 0.00 0.00 0.00 81 1013.8
20260904215507 80 2 3.0 13.0 0.00 0.00 0.00 78 1013.6
20260904215006 81 19 6.0 15.0 0.00 0.00 0.00 76 1013.2
20260904214506 81 43 5.0 17.0 0.00 0.00 0.00 74 1012.8
20260904214006 82 33 6.0 20.0 0.00 0.00 0.00 71 1012.4
20260904213507 84 20 7.0 28.0 0.00 0.00 0.00 68 1012.4
20260904213007 86 352 14.0 28.0 0.00 0.00 0.00 64 1012.4
20260904212506 90 20 10.0 26.0 0.00 0.00 0.00 65 1012.3
20260904212007 93 311 6.0 20.0 0.00 0.00 0.00 63 1012.3
20260904211506 94 353 1.0 6.0 0.00 0.00 0.00 62 1011.7
20260904211006 94 218 0.0 0.0 0.00 0.00 0.00 61 1011.3
20260904210507 94 218 0.0 0.0 0.00 0.00 0.00 60 1011.1
20260904210006 95 218 0.0 0.0 0.00 0.00 0.00 59 1011.3
20260904205506 95 218 0.0 1.0 0.00 0.00 0.00 60 1011.4
20260904205008 95 218 0.0 3.0 0.00 0.00 0.00 58 1011.3
20260904204506 96 218 0.0 3.0 0.00 0.00 0.00 58 1011.2
20260904204006 96 218 1.0 3.0 0.00 0.00 0.00 58 1011.2
20260904203506 96 218 1.0 3.0 0.00 0.00 0.00 57 1011.1
20260904203006 96 218 0.0 3.0 0.00 0.00 0.00 59 1011.1
20260904202506 95 218 0.0 2.0 0.00 0.00 0.00 60 1011.1
20260904202009 94 218 1.0 2.0 0.00 0.00 0.00 61 1011.0
20260904201507 95 218 1.0 2.0 0.00 0.00 0.00 61 1010.9
20260904201007 95 218 0.0 2.0 0.00 0.00 0.00 62 1011.1
20260904200506 95 218 0.0 2.0 0.00 0.00 0.00 61 1011.3
20260904200006 96 218 0.0 2.0 0.00 0.00 0.00 62 1011.4
20260904195506 96 218 1.0 2.0 0.00 0.00 0.00 59 1011.4
20260904195006 96 218 0.0 3.0 0.00 0.00 0.00 58 1011.6
20260904194506 97 218 0.0 3.0 0.00 0.00 0.00 58 1011.7
20260904194006 98 218 2.0 3.0 0.00 0.00 0.00 55 1011.7
20260904193506 99 222 2.0 3.0 0.00 0.00 0.00 54 1011.7
20260904193006 100 238 0.0 3.0 0.00 0.00 0.00 54 1011.7
20260904192507 100 219 2.0 3.0 0.00 0.00 0.00 54 1011.8
20260904192007 99 231 0.0 3.0 0.00 0.00 0.00 56 1011.9
20260904191506 98 232 1.0 3.0 0.00 0.00 0.00 55 1011.9
20260904191006 98 227 2.0 3.0 0.00 0.00 0.00 56 1012.0
20260904190506 99 221 2.0 5.0 0.00 0.00 0.00 54 1012.0
20260904190006 100 125 0.0 5.0 0.00 0.00 0.00 56 1012.1
20260904185506 100 128 1.0 5.0 0.00 0.00 0.00 56 1012.3
20260904185007 100 52 1.0 6.0 0.00 0.00 0.00 54 1012.4
20260904184506 100 9 2.0 6.0 0.00 0.00 0.00 55 1012.6
20260904184006 100 17 2.0 5.0 0.00 0.00 0.00 55 1012.7
20260904183506 100 32 2.0 7.0 0.00 0.00 0.00 54 1012.7
20260904183006 100 5 1.0 7.0 0.00 0.00 0.00 55 1012.8
20260904182505 99 342 1.0 7.0 0.00 0.00 0.00 56 1012.8
20260904182007 99 173 1.0 7.0 0.00 0.00 0.00 55 1012.9
20260904181506 99 286 2.0 7.0 0.00 0.00 0.00 54 1013.0
20260904181006 98 0 2.0 7.0 0.00 0.00 0.00 57 1013.0
20260904180506 98 14 3.0 7.0 0.00 0.00 0.00 58 1013.1
20260904180006 97 0 3.0 7.0 0.00 0.00 0.00 56 1013.1
20260904175506 98 25 1.0 5.0 0.00 0.00 0.00 57 1013.2
20260904175008 97 108 1.0 5.0 0.00 0.00 0.00 57 1013.3
20260904174506 96 141 2.0 3.0 0.00 0.00 0.00 58 1013.4
20260904174006 97 144 1.0 3.0 0.00 0.00 0.00 60 1013.5
20260904173506 96 147 2.0 3.0 0.00 0.00 0.00 61 1013.5
20260904173006 96 69 2.0 3.0 0.00 0.00 0.00 60 1013.6
20260904172506 96 30 1.0 5.0 0.00 0.00 0.00 61 1013.6
20260904172006 95 15 2.0 5.0 0.00 0.00 0.00 60 1013.6
20260904171507 95 183 1.0 5.0 0.00 0.00 0.00 61 1013.5
20260904171007 93 217 2.0 5.0 0.00 0.00 0.00 61 1013.5
20260904170506 94 127 1.0 5.0 0.00 0.00 0.00 62 1013.5
20260904170007 93 328 0.0 5.0 0.00 0.00 0.00 62 1013.5
20260904165507 93 355 2.0 5.0 0.00 0.00 0.00 61 1013.6
20260904165007 93 31 2.0 9.0 0.00 0.00 0.00 62 1013.6
20260904164506 93 355 2.0 9.0 0.00 0.00 0.00 61 1013.6
20260904164007 93 5 2.0 6.0 0.00 0.00 0.00 63 1013.6
20260904163506 92 254 2.0 6.0 0.00 0.00 0.00 65 1013.6
20260904163006 92 4 2.0 6.0 0.00 0.00 0.00 64 1013.8
20260904162507 92 350 2.0 7.0 0.00 0.00 0.00 65 1013.9
20260904162006 92 114 2.0 7.0 0.00 0.00 0.00 65 1013.9
20260904161505 92 17 0.0 6.0 0.00 0.00 0.00 67 1013.9
20260904161006 92 15 2.0 6.0 0.00 0.00 0.00 65 1013.9
20260904160506 92 12 1.0 8.0 0.00 0.00 0.00 66 1013.9
20260904160006 92 43 4.0 8.0 0.00 0.00 0.00 65 1014.1
20260904155506 92 355 2.0 6.0 0.00 0.00 0.00 66 1014.1
20260904155006 92 8 2.0 5.0 0.00 0.00 0.00 68 1014.2
20260904154506 91 313 1.0 6.0 0.00 0.00 0.00 66 1014.3
20260904154006 91 286 2.0 6.0 0.00 0.00 0.00 67 1014.2
20260904153507 91 7 1.0 8.0 0.00 0.00 0.00 67 1014.1
20260904153006 90 21 3.0 8.0 0.00 0.00 0.00 67 1014.2
20260904152506 90 354 3.0 7.0 0.00 0.00 0.00 68 1014.2
20260904152005 90 307 2.0 7.0 0.00 0.00 0.00 69 1014.1
20260904151506 89 336 1.0 7.0 0.00 0.00 0.00 71 1014.1
20260904151006 89 5 2.0 5.0 0.00 0.00 0.00 71 1014.1
20260904150506 89 259 1.0 5.0 0.00 0.00 0.00 73 1014.2
20260904150005 89 224 3.0 5.0 0.00 0.00 0.00 73 1014.1
20260904145506 88 219 2.0 3.0 0.00 0.00 0.00 73 1014.2
20260904145005 88 270 1.0 3.0 0.00 0.00 0.00 74 1014.1
20260904144505 88 217 1.0 3.0 0.00 0.00 0.00 74 1014.2
20260904144006 88 251 2.0 3.0 0.00 0.00 0.00 74 1014.0
20260904143506 87 295 0.0 3.0 0.00 0.00 0.00 74 1014.1
20260904143005 87 293 2.0 3.0 0.00 0.00 0.00 74 1014.0
20260904142507 87 211 2.0 3.0 0.00 0.00 0.00 75 1014.0
20260904142005 87 326 1.0 3.0 0.00 0.00 0.00 76 1014.0
20260904141505 87 209 1.0 3.0 0.00 0.00 0.00 76 1014.0
20260904141006 87 206 2.0 3.0 0.00 0.00 0.00 76 1014.1
20260904140506 86 221 1.0 3.0 0.00 0.00 0.00 77 1014.0
20260904140005 86 248 1.0 3.0 0.00 0.00 0.00 77 1014.1
20260904135505 85 5 2.0 7.0 0.00 0.00 0.00 78 1014.0
20260904135006 85 10 3.0 7.0 0.00 0.00 0.00 79 1013.9
20260904134506 85 338 1.0 3.0 0.00 0.00 0.00 79 1013.9
20260904134006 85 232 1.0 3.0 0.00 0.00 0.00 79 1013.8
20260904133506 84 232 2.0 5.0 0.00 0.00 0.00 79 1013.7
20260904133006 84 209 2.0 5.0 0.00 0.00 0.00 79 1013.7
20260904132506 84 260 2.0 3.0 0.00 0.00 0.00 80 1013.7
20260904132006 84 235 1.0 3.0 0.00 0.00 0.00 80 1013.7
20260904131505 83 244 0.0 3.0 0.00 0.00 0.00 81 1013.7
20260904131005 83 242 0.0 3.0 0.00 0.00 0.00 81 1013.7
20260904130506 83 242 1.0 3.0 0.00 0.00 0.00 82 1013.8
20260904130006 83 240 1.0 5.0 0.00 0.00 0.00 81 1013.9
20260904125506 83 221 1.0 5.0 0.00 0.00 0.00 82 1014.0
20260904125005 82 221 2.0 5.0 0.00 0.00 0.00 82 1013.9
20260904124505 82 231 1.0 3.0 0.00 0.00 0.00 83 1013.9
20260904124005 82 223 0.0 3.0 0.00 0.00 0.00 84 1013.9
20260904123505 81 223 1.0 3.0 0.00 0.00 0.00 84 1013.9
20260904123006 81 224 1.0 3.0 0.00 0.00 0.00 85 1014.0
20260904122507 81 223 0.0 6.0 0.00 0.00 0.00 86 1013.9
20260904122005 80 223 2.0 6.0 0.00 0.00 0.00 86 1014.0
20260904121505 80 211 1.0 6.0 0.00 0.00 0.00 87 1014.2
20260904121007 79 205 1.0 5.0 0.00 0.00 0.00 87 1014.1
20260904120506 79 215 2.0 5.0 0.00 0.00 0.00 88 1014.0
20260904120006 78 221 2.0 5.0 0.00 0.00 0.00 89 1013.9
20260904115505 78 196 2.0 3.0 0.00 0.00 0.00 90 1013.8
20260904115005 78 196 1.0 3.0 0.00 0.00 0.00 90 1013.8
20260904114505 78 196 1.0 3.0 0.00 0.00 0.00 91 1013.8
20260904114006 77 179 0.0 3.0 0.00 0.00 0.00 91 1013.8
20260904113505 77 160 1.0 2.0 0.00 0.00 0.00 92 1013.8
20260904113005 77 150 0.0 0.0 0.00 0.00 0.00 92 1013.8
20260904112506 77 150 0.0 0.0 0.00 0.00 0.00 92 1013.8
20260904112006 77 150 0.0 0.0 0.00 0.00 0.00 91 1013.8
20260904111506 77 150 0.0 0.0 0.00 0.00 0.00 91 1013.8
20260904111006 77 150 0.0 0.0 0.00 0.00 0.00 91 1013.8
20260904110506 77 150 0.0 0.0 0.00 0.00 0.00 91 1013.8
20260904110005 77 150 0.0 0.0 0.00 0.00 0.00 91 1013.8
20260904105506 77 150 0.0 0.0 0.00 0.00 0.00 91 1013.7
20260904105006 77 150 0.0 0.0 0.00 0.00 0.00 91 1013.8
20260904104506 77 150 0.0 0.0 0.00 0.00 0.00 91 1013.8
20260904104006 77 150 0.0 0.0 0.00 0.00 0.00 90 1013.7
20260904103505 77 150 0.0 0.0 0.00 0.00 0.00 90 1013.6
20260904103005 77 150 0.0 0.0 0.00 0.00 0.00 90 1013.7
20260904102506 77 150 0.0 0.0 0.00 0.00 0.00 90 1013.6
20260904102006 77 150 0.0 0.0 0.00 0.00 0.00 90 1013.6
20260904101505 77 150 0.0 0.0 0.00 0.00 0.00 90 1013.6
20260904101006 77 150 0.0 0.0 0.00 0.00 0.00 89 1013.7
20260904100506 77 150 0.0 0.0 0.00 0.00 0.00 89 1013.7
20260904100005 78 150 0.0 0.0 0.00 0.00 0.00 89 1013.7
20260904095505 78 150 0.0 0.0 0.00 0.00 0.00 89 1013.7
20260904095006 78 150 0.0 0.0 0.00 0.00 0.00 88 1013.7
20260904094505 78 150 0.0 0.0 0.00 0.00 0.00 88 1013.7
20260904094005 78 150 0.0 0.0 0.00 0.00 0.00 88 1013.7
20260904093505 78 150 0.0 0.0 0.00 0.00 0.00 88 1013.8
20260904093005 78 150 0.0 0.0 0.00 0.00 0.00 87 1013.9
20260904092506 78 150 0.0 0.0 0.00 0.00 0.00 87 1013.8
20260904092005 78 150 0.0 0.0 0.00 0.00 0.00 87 1013.9
20260904091506 78 150 0.0 0.0 0.00 0.00 0.00 87 1014.0
20260904091006 78 150 0.0 0.0 0.00 0.00 0.00 86 1014.0
20260904090506 78 150 0.0 0.0 0.00 0.00 0.00 86 1014.0
20260904090005 79 150 0.0 0.0 0.00 0.00 0.00 86 1014.0
20260904085505 79 150 0.0 0.0 0.00 0.00 0.00 86 1014.0
20260904085006 79 150 0.0 0.0 0.00 0.00 0.00 86 1013.9
20260904084506 79 150 0.0 0.0 0.00 0.00 0.00 85 1014.0
20260904084006 79 150 0.0 0.0 0.00 0.00 0.00 85 1013.8
20260904083506 79 150 0.0 0.0 0.00 0.00 0.00 85 1013.8
20260904083006 79 150 0.0 0.0 0.00 0.00 0.00 85 1013.8
20260904082505 79 150 0.0 0.0 0.00 0.00 0.00 84 1013.7
20260904082005 79 150 0.0 0.0 0.00 0.00 0.00 84 1013.7
20260904081506 79 150 0.0 0.0 0.00 0.00 0.00 84 1013.6
20260904081005 79 150 0.0 0.0 0.00 0.00 0.00 84 1013.7
20260904080505 80 150 0.0 0.0 0.00 0.00 0.00 84 1013.7
20260904080005 80 150 0.0 0.0 0.00 0.00 0.00 83 1013.7
20260904075505 80 150 0.0 0.0 0.00 0.00 0.00 84 1013.6
20260904075006 80 150 0.0 0.0 0.00 0.00 0.00 83 1013.4
20260904074505 80 150 0.0 0.0 0.00 0.00 0.00 83 1013.4
20260904074005 80 150 0.0 0.0 0.00 0.00 0.00 83 1013.4
20260904073505 80 150 0.0 0.0 0.00 0.00 0.00 82 1013.4
20260904073005 81 150 0.0 0.0 0.00 0.00 0.00 82 1013.3
20260904072505 81 150 0.0 0.0 0.00 0.00 0.00 82 1013.2
20260904072005 81 150 0.0 0.0 0.00 0.00 0.00 82 1013.3
20260904071505 81 150 0.0 0.0 0.00 0.00 0.00 81 1013.3
20260904071006 81 150 0.0 0.0 0.00 0.00 0.00 81 1013.4
20260904070505 81 150 0.0 0.0 0.00 0.00 0.00 81 1013.3
20260904070006 81 150 0.0 0.0 0.00 0.00 0.00 80 1013.2
20260904065505 82 150 0.0 5.0 0.00 0.00 0.00 80 1013.3
20260904065005 82 151 1.0 5.0 0.00 0.00 0.00 80 1013.3
20260904064505 82 133 2.0 5.0 0.00 0.00 0.00 81 1013.4
20260904064005 82 126 1.0 5.0 0.00 0.00 0.00 81 1013.5
20260904063506 82 40 2.0 6.0 0.00 0.00 0.00 81 1013.6
20260904063005 82 128 1.0 7.0 0.00 0.00 0.00 81 1013.4
20260904062505 83 51 1.0 7.0 0.00 0.00 0.00 82 1013.4
20260904062005 83 58 1.0 5.0 0.00 0.00 0.00 82 1013.9
20260904061504 83 37 1.0 8.0 0.00 0.00 0.00 82 1014.0
20260904061006 83 335 2.0 8.0 0.00 0.00 0.00 81 1014.1
20260904060505 83 4 3.0 13.0 0.00 0.00 0.00 81 1014.3
20260904060005 84 26 1.0 13.0 0.00 0.00 0.00 80 1014.0
20260904055507 84 0 7.0 13.0 0.00 0.00 0.00 79 1014.8